This is the latest recevied weather packets stored in our database for station/object N7MLR. If no packets are shown the sender has not sent any weather packets the latest 10 day(s).
| Time | Temp. | Humidity | Pressure | Rain* | Wind** | Luminosity | Snow |
|---|---|---|---|---|---|---|---|
| 1777678594 | 12.78° C | 99% | 1013.1 hPa | 0 mm | - | 72 W/m² | - |
| 1777678291 | 12.78° C | 99% | 1013 hPa | 0 mm | - | 75 W/m² | - |
| 1777677987 | 12.78° C | 99% | 1012.7 hPa | 0 mm | - | 76 W/m² | - |
| 1777677685 | 12.78° C | 99% | 1012.6 hPa | 0 mm | - | 78 W/m² | - |
| 1777677382 | 12.78° C | 99% | 1012.4 hPa | 0 mm | - | 62 W/m² | - |
| 1777677080 | 13.33° C | 99% | 1012.2 hPa | 0 mm | - | 78 W/m² | - |
| 1777676778 | 13.33° C | 99% | 1012.4 hPa | 0 mm | - | 42 W/m² | - |
| 1777676476 | 13.33° C | 99% | 1012.3 hPa | 0 mm | - | 25 W/m² | - |
| 1777676174 | 13.33° C | 99% | 1012.4 hPa | 0 mm | - | 50 W/m² | - |
| 1777675869 | 13.33° C | 99% | 1012.4 hPa | 0 mm | - | 50 W/m² | - |
| 1777675567 | 13.33° C | 99% | 1012.5 hPa | 0 mm | - | 77 W/m² | - |
| 1777675263 | 13.33° C | 99% | 1012.5 hPa | 0 mm | - | 46 W/m² | - |
| 1777674960 | 13.33° C | 99% | 1012.3 hPa | 0 mm | - | 62 W/m² | - |
| 1777674657 | 13.33° C | 99% | 1012.6 hPa | 0 mm | - | 41 W/m² | - |
| 1777674374 | 13.33° C | 99% | 1012.6 hPa | 0 mm | - | 95 W/m² | - |
| 1777674051 | 13.89° C | 99% | 1012.4 hPa | 0 mm | - | 82 W/m² | - |
| 1777673746 | 13.33° C | 99% | 1012.7 hPa | 0 mm | - | 82 W/m² | - |
| 1777673444 | 13.33° C | 99% | 1012.5 hPa | 0 mm | - | 120 W/m² | - |
| 1777673142 | 13.89° C | 99% | 1012.7 hPa | 0 mm | - | 138 W/m² | - |
| 1777672838 | 13.89° C | 99% | 1012.2 hPa | 0 mm | - | 189 W/m² | - |
| 1777672534 | 13.89° C | 99% | 1012.2 hPa | 0 mm | - | 133 W/m² | - |
| 1777672230 | 13.89° C | 99% | 1012.1 hPa | 0 mm | - | 164 W/m² | - |
| 1777671925 | 13.89° C | 99% | 1012.3 hPa | 1.27 mm | - | 189 W/m² | - |
| 1777671621 | 14.44° C | 99% | 1012 hPa | 3.05 mm | - | 200 W/m² | - |
| 1777671319 | 13.89° C | 99% | 1012.1 hPa | 4.83 mm | - | 416 W/m² | - |
* Rain latest hour (hover to see other rain measurements)
** Current wind speed in m/s (hover to see current wind gust speed)